Location: Unspecified
(42.9300°N, 71.1866°W)
Time: 01:47:41
(UTC-04:00)

GENESIS II - Visible Passes

Search period start: 23 May 2015 00:00
Search period end: 02 June 2015 00:00
Orbit: 502 x 550 km, 64.5° (Epoch: 21 May)

Date Brightness Start Highest point End Pass type
(mag) Time Alt. Az. Time Alt. Az. Time Alt. Az.
23 May 4.2 04:12:32 14° SW 04:15:53 77° NW 04:19:54 10° NNE visible
24 May 6.8 02:25:14 10° ESE 02:25:53 11° ESE 02:27:03 10° E visible
24 May 4.3 04:00:25 18° SW 04:03:17 70° NW 04:07:18 10° NNE visible
25 May 6.7 02:13:03 12° ESE 02:13:14 12° ESE 02:14:56 10° E visible
25 May 4.4 03:48:14 22° SW 03:50:41 63° NW 03:54:40 10° NNE visible
26 May 6.6 02:00:49 13° ESE 02:00:49 13° ESE 02:02:39 10° E visible
26 May 4.5 03:36:00 25° WSW 03:38:05 57° NW 03:42:02 10° NNE visible
27 May 6.6 01:48:32 15° ESE 01:48:32 15° ESE 01:50:17 10° ENE visible
27 May 4.7 03:23:42 29° WSW 03:25:28 52° NW 03:29:24 10° NNE visible
28 May 6.5 01:36:11 15° E 01:36:11 15° E 01:37:52 10° ENE visible
28 May 4.8 03:11:22 31° WSW 03:12:51 47° NW 03:16:44 10° NNE visible
29 May 6.5 01:23:47 16° E 01:23:47 16° E 01:25:24 10° ENE visible
29 May 5.0 02:58:58 32° W 03:00:14 43° NW 03:04:06 10° NNE visible
30 May 6.5 01:11:20 17° E 01:11:20 17° E 01:12:55 10° ENE visible
30 May 5.2 02:46:31 32° W 02:47:37 39° NW 02:51:25 10° NNE visible
31 May 6.4 00:58:51 17° E 00:58:51 17° E 01:00:24 10° ENE visible
31 May 5.3 02:34:01 31° W 02:34:59 36° NW 02:38:44 10° NNE visible
01 Jun 6.4 00:46:17 18° ENE 00:46:17 18° ENE 00:47:51 10° ENE visible
01 Jun 5.4 02:21:27 30° WNW 02:22:22 33° NW 02:26:02 10° NNE visible
